owner,sensor,date,latitude,longitude,vertical_datum,wind_speed,wind_to_direction,wind_speed_of_gust,qcFlag 
TCOON,ioos:station:TCOON:057:1,2014-12-01T00:00:00Z,28.4460,-96.3961,0.0,4.5,124.0,5.4,'11111222,11111222,11111222' 
TCOON,ioos:station:TCOON:057:1,2014-12-01T00:06:00Z,28.4460,-96.3961,0.0,4.4,121.0,4.8,'11111222,11111222,11111222' 
TCOON,ioos:station:TCOON:057:1,2014-12-01T00:12:00Z,28.4460,-96.3961,0.0,4.5,117.0,4.9,'11111222,11111222,11111222' 
TCOON,ioos:station:TCOON:057:1,2014-12-01T00:18:00Z,28.4460,-96.3961,0.0,4.9,116.0,5.2,'11111222,11111222,11111222' 
TCOON,ioos:station:TCOON:057:1,2014-12-01T00:24:00Z,28.4460,-96.3961,0.0,4.9,114.0,5.4,'11111222,11111222,11111222' 
TCOON,ioos:station:TCOON:057:1,2014-12-01T00:30:00Z,28.4460,-96.3961,0.0,4.7,117.0,5.4,'11111222,11111222,11111222' 
TCOON,ioos:station:TCOON:057:1,2014-12-01T00:36:00Z,28.4460,-96.3961,0.0,4.1,119.0,5.1,'11111222,11111222,11111222' 
TCOON,ioos:station:TCOON:057:1,2014-12-01T00:42:00Z,28.4460,-96.3961,0.0,4.4,121.0,5.2,'11111222,11111222,11111222' 
TCOON,ioos:station:TCOON:057:1,2014-12-01T00:48:00Z,28.4460,-96.3961,0.0,4.5,127.0,5.2,'11111222,11111222,11111222' 
TCOON,ioos:station:TCOON:057:1,2014-12-01T00:54:00Z,28.4460,-96.3961,0.0,4.8,129.0,5.4,'11111222,11111222,11111222' 
TCOON,ioos:station:TCOON:057:1,2014-12-01T01:00:00Z,28.4460,-96.3961,0.0,5.1,125.0,6.2,'11111222,11111222,11111222' 
TCOON,ioos:station:TCOON:057:1,2014-12-01T01:06:00Z,28.4460,-96.3961,0.0,5.6,124.0,6.4,'11111222,11111222,11111222' 
TCOON,ioos:station:TCOON:057:1,2014-12-01T01:12:00Z,28.4460,-96.3961,0.0,5.8,123.0,6.3,'11111222,11111222,11111222' 
TCOON,ioos:station:TCOON:057:1,2014-12-01T01:18:00Z,28.4460,-96.3961,0.0,5.6,123.0,6.5,'11111222,11111222,11111222' 
TCOON,ioos:station:TCOON:057:1,2014-12-01T01:24:00Z,28.4460,-96.3961,0.0,5.3,123.0,6.2,'11111222,11111222,11111222' 
TCOON,ioos:station:TCOON:057:1,2014-12-01T01:30:00Z,28.4460,-96.3961,0.0,6.2,129.0,6.7,'11111222,11111222,11111222' 
TCOON,ioos:station:TCOON:057:1,2014-12-01T01:36:00Z,28.4460,-96.3961,0.0,5.7,132.0,6.6,'11111222,11111222,11111222' 
TCOON,ioos:station:TCOON:057:1,2014-12-01T01:42:00Z,28.4460,-96.3961,0.0,5.4,138.0,6.2,'11111222,11111222,11111222' 
TCOON,ioos:station:TCOON:057:1,2014-12-01T01:48:00Z,28.4460,-96.3961,0.0,5.0,134.0,5.8,'11111222,11111222,11111222' 
TCOON,ioos:station:TCOON:057:1,2014-12-01T01:54:00Z,28.4460,-96.3961,0.0,4.5,131.0,5.1,'11111222,11111222,11111222' 
TCOON,ioos:station:TCOON:057:1,2014-12-01T02:00:00Z,28.4460,-96.3961,0.0,4.8,130.0,5.2,'11111222,11111222,11111222' 
TCOON,ioos:station:TCOON:057:1,2014-12-01T02:06:00Z,28.4460,-96.3961,0.0,4.4,129.0,4.9,'11111222,11111222,11111222' 
TCOON,ioos:station:TCOON:057:1,2014-12-01T02:12:00Z,28.4460,-96.3961,0.0,4.1,128.0,4.7,'11111222,11111222,11111222' 
TCOON,ioos:station:TCOON:057:1,2014-12-01T02:18:00Z,28.4460,-96.3961,0.0,4.1,128.0,4.7,'1111122,1111122,1111122' 
TCOON,ioos:station:TCOON:057:1,2014-12-01T02:24:00Z,28.4460,-96.3961,0.0,4.3,130.0,5.0,'11111222,11111222,11111222' 
TCOON,ioos:station:TCOON:057:1,2014-12-01T02:30:00Z,28.4460,-96.3961,0.0,4.4,131.0,4.8,'11111222,11111222,11111222' 
TCOON,ioos:station:TCOON:057:1,2014-12-01T02:36:00Z,28.4460,-96.3961,0.0,4.7,131.0,5.2,'11111222,11111222,11111222' 
TCOON,ioos:station:TCOON:057:1,2014-12-01T02:42:00Z,28.4460,-96.3961,0.0,4.8,130.0,5.3,'11111222,11111222,11111222' 
TCOON,ioos:station:TCOON:057:1,2014-12-01T02:48:00Z,28.4460,-96.3961,0.0,5.0,132.0,5.5,'11111222,11111222,11111222' 
TCOON,ioos:station:TCOON:057:1,2014-12-01T02:54:00Z,28.4460,-96.3961,0.0,5.5,131.0,5.9,'11111222,11111222,11111222' 
TCOON,ioos:station:TCOON:057:1,2014-12-01T03:00:00Z,28.4460,-96.3961,0.0,5.4,131.0,5.9,'11111222,11111222,11111222' 
TCOON,ioos:station:TCOON:057:1,2014-12-01T03:06:00Z,28.4460,-96.3961,0.0,5.7,128.0,6.1,'11111222,11111222,11111222' 
TCOON,ioos:station:TCOON:057:1,2014-12-01T03:12:00Z,28.4460,-96.3961,0.0,5.7,128.0,6.1,'1111122,1111122,1111122' 
TCOON,ioos:station:TCOON:057:1,2014-12-01T03:18:00Z,28.4460,-96.3961,0.0,5.9,128.0,6.4,'11111222,11111222,11111222' 
TCOON,ioos:station:TCOON:057:1,2014-12-01T03:24:00Z,28.4460,-96.3961,0.0,6.0,127.0,6.4,'11111222,11111222,11111222' 
TCOON,ioos:station:TCOON:057:1,2014-12-01T03:30:00Z,28.4460,-96.3961,0.0,5.8,127.0,6.4,'11111222,11111222,11111222' 
TCOON,ioos:station:TCOON:057:1,2014-12-01T03:36:00Z,28.4460,-96.3961,0.0,5.8,125.0,6.5,'11111222,11111222,11111222' 
TCOON,ioos:station:TCOON:057:1,2014-12-01T03:42:00Z,28.4460,-96.3961,0.0,5.3,126.0,6.3,'11111222,11111222,11111222' 
TCOON,ioos:station:TCOON:057:1,2014-12-01T03:48:00Z,28.4460,-96.3961,0.0,5.3,129.0,6.1,'11111222,11111222,11111222' 
TCOON,ioos:station:TCOON:057:1,2014-12-01T03:54:00Z,28.4460,-96.3961,0.0,5.2,127.0,5.8,'11111222,11111222,11111222' 
TCOON,ioos:station:TCOON:057:1,2014-12-01T04:00:00Z,28.4460,-96.3961,0.0,4.9,126.0,5.4,'11111222,11111222,11111222' 
TCOON,ioos:station:TCOON:057:1,2014-12-01T04:06:00Z,28.4460,-96.3961,0.0,4.4,124.0,5.2,'11111222,11111222,11111222' 
TCOON,ioos:station:TCOON:057:1,2014-12-01T04:12:00Z,28.4460,-96.3961,0.0,4.6,124.0,4.9,'11111222,11111222,11111222' 
TCOON,ioos:station:TCOON:057:1,2014-12-01T04:18:00Z,28.4460,-96.3961,0.0,4.6,124.0,4.9,'1111122,1111122,1111122' 
TCOON,ioos:station:TCOON:057:1,2014-12-01T04:24:00Z,28.4460,-96.3961,0.0,4.3,121.0,4.7,'11111222,11111222,11111222' 
TCOON,ioos:station:TCOON:057:1,2014-12-01T04:30:00Z,28.4460,-96.3961,0.0,4.0,123.0,4.5,'11111222,11111222,11111222' 
TCOON,ioos:station:TCOON:057:1,2014-12-01T04:36:00Z,28.4460,-96.3961,0.0,4.0,126.0,4.4,'11111222,11111222,11111222' 
TCOON,ioos:station:TCOON:057:1,2014-12-01T04:42:00Z,28.4460,-96.3961,0.0,3.9,127.0,4.5,'11111222,11111222,11111222' 
TCOON,ioos:station:TCOON:057:1,2014-12-01T04:48:00Z,28.4460,-96.3961,0.0,3.7,126.0,4.1,'11111222,11111222,11111222' 
TCOON,ioos:station:TCOON:057:1,2014-12-01T04:54:00Z,28.4460,-96.3961,0.0,3.7,124.0,4.1,'11111222,11111222,11111222' 
TCOON,ioos:station:TCOON:057:1,2014-12-01T05:00:00Z,28.4460,-96.3961,0.0,3.6,125.0,4.1,'11111222,11111222,11111222' 
TCOON,ioos:station:TCOON:057:1,2014-12-01T05:06:00Z,28.4460,-96.3961,0.0,3.5,127.0,3.9,'11111222,11111222,11111222' 
TCOON,ioos:station:TCOON:057:1,2014-12-01T05:12:00Z,28.4460,-96.3961,0.0,3.5,127.0,3.9,'1111122,1111122,1111122' 
TCOON,ioos:station:TCOON:057:1,2014-12-01T05:18:00Z,28.4460,-96.3961,0.0,3.3,132.0,3.5,'11111222,11111222,11111222' 
TCOON,ioos:station:TCOON:057:1,2014-12-01T05:24:00Z,28.4460,-96.3961,0.0,3.2,132.0,3.5,'11111222,11111222,11111222' 
TCOON,ioos:station:TCOON:057:1,2014-12-01T05:30:00Z,28.4460,-96.3961,0.0,3.3,132.0,3.6,'11111222,11111222,11111222' 
TCOON,ioos:station:TCOON:057:1,2014-12-01T05:36:00Z,28.4460,-96.3961,0.0,3.4,133.0,3.7,'11111222,11111222,11111222' 
TCOON,ioos:station:TCOON:057:1,2014-12-01T05:42:00Z,28.4460,-96.3961,0.0,3.1,138.0,3.4,'11111222,11111222,11111222' 
TCOON,ioos:station:TCOON:057:1,2014-12-01T05:48:00Z,28.4460,-96.3961,0.0,3.2,137.0,3.5,'11111222,11111222,11111222' 
TCOON,ioos:station:TCOON:057:1,2014-12-01T05:54:00Z,28.4460,-96.3961,0.0,3.4,135.0,3.8,'11111222,11111222,11111222' 
TCOON,ioos:station:TCOON:057:1,2014-12-01T06:00:00Z,28.4460,-96.3961,0.0,3.3,132.0,3.7,'11111222,11111222,11111222' 
TCOON,ioos:station:TCOON:057:1,2014-12-01T06:06:00Z,28.4460,-96.3961,0.0,2.9,134.0,3.4,'11111222,11111222,11111222' 
TCOON,ioos:station:TCOON:057:1,2014-12-01T06:12:00Z,28.4460,-96.3961,0.0,2.7,134.0,3.1,'11111222,11111222,11111222' 
TCOON,ioos:station:TCOON:057:1,2014-12-01T06:18:00Z,28.4460,-96.3961,0.0,2.7,134.0,3.1,'1111122,1111122,1111122' 
TCOON,ioos:station:TCOON:057:1,2014-12-01T06:24:00Z,28.4460,-96.3961,0.0,2.9,125.0,3.1,'11111222,11111222,11111222' 
TCOON,ioos:station:TCOON:057:1,2014-12-01T06:30:00Z,28.4460,-96.3961,0.0,2.6,123.0,3.2,'11111222,11111222,11111222' 
TCOON,ioos:station:TCOON:057:1,2014-12-01T06:36:00Z,28.4460,-96.3961,0.0,2.9,124.0,3.1,'11111222,11111222,11111222' 
TCOON,ioos:station:TCOON:057:1,2014-12-01T06:42:00Z,28.4460,-96.3961,0.0,2.7,125.0,3.1,'11111222,11111222,11111222' 
TCOON,ioos:station:TCOON:057:1,2014-12-01T06:48:00Z,28.4460,-96.3961,0.0,2.7,128.0,3.0,'11111222,11111222,11111222' 
TCOON,ioos:station:TCOON:057:1,2014-12-01T06:54:00Z,28.4460,-96.3961,0.0,2.8,126.0,3.0,'11111222,11111222,11111222' 
TCOON,ioos:station:TCOON:057:1,2014-12-01T07:00:00Z,28.4460,-96.3961,0.0,2.7,123.0,3.1,'11111222,11111222,11111222' 
TCOON,ioos:station:TCOON:057:1,2014-12-01T07:06:00Z,28.4460,-96.3961,0.0,2.6,122.0,2.9,'11111222,11111222,11111222' 
TCOON,ioos:station:TCOON:057:1,2014-12-01T07:12:00Z,28.4460,-96.3961,0.0,2.5,118.0,2.9,'11111222,11111222,11111222' 
TCOON,ioos:station:TCOON:057:1,2014-12-01T07:18:00Z,28.4460,-96.3961,0.0,2.5,118.0,2.9,'1111122,1111122,1111122' 
TCOON,ioos:station:TCOON:057:1,2014-12-01T07:24:00Z,28.4460,-96.3961,0.0,1.9,122.0,2.3,'11111222,11111222,11111222' 
TCOON,ioos:station:TCOON:057:1,2014-12-01T07:30:00Z,28.4460,-96.3961,0.0,2.1,119.0,2.2,'11111222,11111222,11111222' 
TCOON,ioos:station:TCOON:057:1,2014-12-01T07:36:00Z,28.4460,-96.3961,0.0,2.3,118.0,2.6,'11111222,11111222,11111222' 
TCOON,ioos:station:TCOON:057:1,2014-12-01T07:42:00Z,28.4460,-96.3961,0.0,2.8,117.0,3.2,'11111222,11111222,11111222' 
TCOON,ioos:station:TCOON:057:1,2014-12-01T07:48:00Z,28.4460,-96.3961,0.0,3.1,124.0,3.4,'11111222,11111222,11111222' 
TCOON,ioos:station:TCOON:057:1,2014-12-01T07:54:00Z,28.4460,-96.3961,0.0,3.0,125.0,3.5,'11111222,11111222,11111222' 
TCOON,ioos:station:TCOON:057:1,2014-12-01T08:00:00Z,28.4460,-96.3961,0.0,2.8,125.0,3.1,'11111222,11111222,11111222' 
TCOON,ioos:station:TCOON:057:1,2014-12-01T08:06:00Z,28.4460,-96.3961,0.0,2.3,118.0,2.8,'11111222,11111222,11111222' 
TCOON,ioos:station:TCOON:057:1,2014-12-01T08:12:00Z,28.4460,-96.3961,0.0,2.3,118.0,2.8,'1111122,1111122,1111122' 
TCOON,ioos:station:TCOON:057:1,2014-12-01T08:18:00Z,28.4460,-96.3961,0.0,2.3,111.0,2.8,'11111222,11111222,11111222' 
TCOON,ioos:station:TCOON:057:1,2014-12-01T08:24:00Z,28.4460,-96.3961,0.0,2.6,105.0,3.0,'11111222,11111222,11111222' 
TCOON,ioos:station:TCOON:057:1,2014-12-01T08:30:00Z,28.4460,-96.3961,0.0,2.2,104.0,2.5,'11111222,11111222,11111222' 
TCOON,ioos:station:TCOON:057:1,2014-12-01T08:36:00Z,28.4460,-96.3961,0.0,2.6,103.0,2.8,'11111222,11111222,11111222' 
TCOON,ioos:station:TCOON:057:1,2014-12-01T08:42:00Z,28.4460,-96.3961,0.0,2.9,101.0,3.1,'11111222,11111222,11111222' 
TCOON,ioos:station:TCOON:057:1,2014-12-01T08:48:00Z,28.4460,-96.3961,0.0,2.8,97.0,3.1,'11111222,11111222,11111222' 
TCOON,ioos:station:TCOON:057:1,2014-12-01T08:54:00Z,28.4460,-96.3961,0.0,3.1,99.0,3.4,'11111222,11111222,11111222' 
TCOON,ioos:station:TCOON:057:1,2014-12-01T09:06:00Z,28.4460,-96.3961,0.0,3.1,107.0,3.3,'11111222,11111222,11111222' 
TCOON,ioos:station:TCOON:057:1,2014-12-01T09:12:00Z,28.4460,-96.3961,0.0,3.1,99.0,3.4,'11111222,11111222,11111222' 
TCOON,ioos:station:TCOON:057:1,2014-12-01T09:18:00Z,28.4460,-96.3961,0.0,3.1,99.0,3.4,'1111122,1111122,1111122' 
TCOON,ioos:station:TCOON:057:1,2014-12-01T09:24:00Z,28.4460,-96.3961,0.0,3.1,107.0,3.4,'11111222,11111222,11111222' 
TCOON,ioos:station:TCOON:057:1,2014-12-01T09:30:00Z,28.4460,-96.3961,0.0,3.1,106.0,3.5,'11111222,11111222,11111222' 
TCOON,ioos:station:TCOON:057:1,2014-12-01T09:36:00Z,28.4460,-96.3961,0.0,3.4,102.0,3.7,'11111222,11111222,11111222' 
TCOON,ioos:station:TCOON:057:1,2014-12-01T09:42:00Z,28.4460,-96.3961,0.0,3.0,102.0,3.5,'11111222,11111222,11111222' 
TCOON,ioos:station:TCOON:057:1,2014-12-01T09:48:00Z,28.4460,-96.3961,0.0,2.7,106.0,3.7,'11111222,11111222,11111222' 
TCOON,ioos:station:TCOON:057:1,2014-12-01T09:54:00Z,28.4460,-96.3961,0.0,2.9,109.0,3.2,'11111222,11111222,11111222' 
TCOON,ioos:station:TCOON:057:1,2014-12-01T10:00:00Z,28.4460,-96.3961,0.0,3.1,109.0,3.4,'11111222,11111222,11111222' 
TCOON,ioos:station:TCOON:057:1,2014-12-01T10:06:00Z,28.4460,-96.3961,0.0,3.0,108.0,3.3,'11111222,11111222,11111222' 
TCOON,ioos:station:TCOON:057:1,2014-12-01T10:12:00Z,28.4460,-96.3961,0.0,3.0,108.0,3.3,'1111122,1111122,1111122' 
TCOON,ioos:station:TCOON:057:1,2014-12-01T10:18:00Z,28.4460,-96.3961,0.0,3.2,106.0,3.5,'11111222,11111222,11111222' 
TCOON,ioos:station:TCOON:057:1,2014-12-01T10:24:00Z,28.4460,-96.3961,0.0,3.1,102.0,3.4,'11111222,11111222,11111222' 
TCOON,ioos:station:TCOON:057:1,2014-12-01T10:30:00Z,28.4460,-96.3961,0.0,3.0,100.0,3.4,'11111222,11111222,11111222' 
TCOON,ioos:station:TCOON:057:1,2014-12-01T10:36:00Z,28.4460,-96.3961,0.0,2.8,102.0,3.3,'11111222,11111222,11111222' 
TCOON,ioos:station:TCOON:057:1,2014-12-01T10:42:00Z,28.4460,-96.3961,0.0,2.9,104.0,3.2,'11111222,11111222,11111222' 
TCOON,ioos:station:TCOON:057:1,2014-12-01T10:48:00Z,28.4460,-96.3961,0.0,2.8,104.0,3.2,'11111222,11111222,11111222' 
TCOON,ioos:station:TCOON:057:1,2014-12-01T10:54:00Z,28.4460,-96.3961,0.0,3.2,101.0,3.5,'11111222,11111222,11111222' 
TCOON,ioos:station:TCOON:057:1,2014-12-01T11:00:00Z,28.4460,-96.3961,0.0,2.9,104.0,3.5,'11111222,11111222,11111222' 
TCOON,ioos:station:TCOON:057:1,2014-12-01T11:06:00Z,28.4460,-96.3961,0.0,2.8,102.0,3.4,'11111222,11111222,11111222' 
TCOON,ioos:station:TCOON:057:1,2014-12-01T11:12:00Z,28.4460,-96.3961,0.0,2.8,102.0,3.4,'1111122,1111122,1111122' 
TCOON,ioos:station:TCOON:057:1,2014-12-01T11:18:00Z,28.4460,-96.3961,0.0,2.7,103.0,3.0,'11111222,11111222,11111222' 
TCOON,ioos:station:TCOON:057:1,2014-12-01T11:24:00Z,28.4460,-96.3961,0.0,2.9,105.0,3.3,'11111222,11111222,11111222' 
TCOON,ioos:station:TCOON:057:1,2014-12-01T11:30:00Z,28.4460,-96.3961,0.0,2.8,109.0,3.3,'11111222,11111222,11111222' 
TCOON,ioos:station:TCOON:057:1,2014-12-01T11:36:00Z,28.4460,-96.3961,0.0,2.6,108.0,2.9,'11111222,11111222,11111222' 
TCOON,ioos:station:TCOON:057:1,2014-12-01T11:42:00Z,28.4460,-96.3961,0.0,2.9,107.0,3.1,'11111222,11111222,11111222' 
TCOON,ioos:station:TCOON:057:1,2014-12-01T11:48:00Z,28.4460,-96.3961,0.0,2.9,107.0,3.1,'11111222,11111222,11111222' 
TCOON,ioos:station:TCOON:057:1,2014-12-01T11:54:00Z,28.4460,-96.3961,0.0,2.8,106.0,3.1,'11111222,11111222,11111222' 
TCOON,ioos:station:TCOON:057:1,2014-12-01T12:00:00Z,28.4460,-96.3961,0.0,2.9,99.0,3.2,'11111222,11111222,11111222' 
TCOON,ioos:station:TCOON:057:1,2014-12-01T12:06:00Z,28.4460,-96.3961,0.0,2.7,98.0,3.0,'11111222,11111222,11111222' 
TCOON,ioos:station:TCOON:057:1,2014-12-01T12:12:00Z,28.4460,-96.3961,0.0,2.7,98.0,3.0,'1111122,1111122,1111122' 
TCOON,ioos:station:TCOON:057:1,2014-12-01T12:18:00Z,28.4460,-96.3961,0.0,3.0,101.0,3.3,'11111222,11111222,11111222' 
TCOON,ioos:station:TCOON:057:1,2014-12-01T12:24:00Z,28.4460,-96.3961,0.0,2.9,101.0,3.6,'11111222,11111222,11111222' 
TCOON,ioos:station:TCOON:057:1,2014-12-01T12:30:00Z,28.4460,-96.3961,0.0,2.7,99.0,3.1,'11111222,11111222,11111222' 
TCOON,ioos:station:TCOON:057:1,2014-12-01T12:36:00Z,28.4460,-96.3961,0.0,2.7,99.0,2.9,'11111222,11111222,11111222' 
TCOON,ioos:station:TCOON:057:1,2014-12-01T12:42:00Z,28.4460,-96.3961,0.0,2.4,96.0,2.7,'11111222,11111222,11111222' 
TCOON,ioos:station:TCOON:057:1,2014-12-01T12:48:00Z,28.4460,-96.3961,0.0,2.4,102.0,2.7,'11111222,11111222,11111222' 
TCOON,ioos:station:TCOON:057:1,2014-12-01T12:54:00Z,28.4460,-96.3961,0.0,2.4,105.0,2.7,'11111222,11111222,11111222' 
TCOON,ioos:station:TCOON:057:1,2014-12-01T13:00:00Z,28.4460,-96.3961,0.0,2.5,98.0,2.8,'11111222,11111222,11111222' 
TCOON,ioos:station:TCOON:057:1,2014-12-01T13:06:00Z,28.4460,-96.3961,0.0,2.9,90.0,3.2,'11111222,11111222,11111222' 
TCOON,ioos:station:TCOON:057:1,2014-12-01T13:12:00Z,28.4460,-96.3961,0.0,2.9,90.0,3.2,'1111122,1111122,1111122' 
TCOON,ioos:station:TCOON:057:1,2014-12-01T13:18:00Z,28.4460,-96.3961,0.0,3.2,89.0,3.9,'11111222,11111222,11111222' 
TCOON,ioos:station:TCOON:057:1,2014-12-01T13:24:00Z,28.4460,-96.3961,0.0,3.1,87.0,3.6,'11111222,11111222,11111222' 
TCOON,ioos:station:TCOON:057:1,2014-12-01T13:30:00Z,28.4460,-96.3961,0.0,3.0,87.0,3.6,'11111222,11111222,11111222' 
TCOON,ioos:station:TCOON:057:1,2014-12-01T13:36:00Z,28.4460,-96.3961,0.0,2.6,82.0,3.2,'11111222,11111222,11111222' 
TCOON,ioos:station:TCOON:057:1,2014-12-01T13:42:00Z,28.4460,-96.3961,0.0,2.4,70.0,2.7,'11111222,11111222,11111222' 
TCOON,ioos:station:TCOON:057:1,2014-12-01T13:48:00Z,28.4460,-96.3961,0.0,2.0,79.0,2.7,'11111222,11111222,11111222' 
TCOON,ioos:station:TCOON:057:1,2014-12-01T13:54:00Z,28.4460,-96.3961,0.0,2.6,82.0,2.7,'11111222,11111222,11111222' 
TCOON,ioos:station:TCOON:057:1,2014-12-01T14:00:00Z,28.4460,-96.3961,0.0,2.4,80.0,3.0,'11111222,11111222,11111222' 
TCOON,ioos:station:TCOON:057:1,2014-12-01T14:06:00Z,28.4460,-96.3961,0.0,2.3,88.0,2.9,'11111222,11111222,11111222' 
TCOON,ioos:station:TCOON:057:1,2014-12-01T14:12:00Z,28.4460,-96.3961,0.0,2.4,90.0,2.7,'11111222,11111222,11111222' 
TCOON,ioos:station:TCOON:057:1,2014-12-01T14:18:00Z,28.4460,-96.3961,0.0,2.4,81.0,2.8,'11111222,11111222,11111222' 
TCOON,ioos:station:TCOON:057:1,2014-12-01T14:24:00Z,28.4460,-96.3961,0.0,2.0,72.0,2.6,'11111222,11111222,11111222' 
TCOON,ioos:station:TCOON:057:1,2014-12-01T14:30:00Z,28.4460,-96.3961,0.0,1.8,58.0,2.1,'11111222,11111222,11111222' 
TCOON,ioos:station:TCOON:057:1,2014-12-01T14:36:00Z,28.4460,-96.3961,0.0,1.5,44.0,2.3,'11111222,11111222,11111222' 
TCOON,ioos:station:TCOON:057:1,2014-12-01T14:42:00Z,28.4460,-96.3961,0.0,1.4,43.0,1.7,'11111222,11111222,11111222' 
TCOON,ioos:station:TCOON:057:1,2014-12-01T14:48:00Z,28.4460,-96.3961,0.0,3.7,221.0,4.5,'11111222,11111222,11111222' 
TCOON,ioos:station:TCOON:057:1,2014-12-01T14:54:00Z,28.4460,-96.3961,0.0,3.2,187.0,4.8,'11111222,11111222,11111222' 
TCOON,ioos:station:TCOON:057:1,2014-12-01T15:00:00Z,28.4460,-96.3961,0.0,5.6,169.0,7.3,'11111222,11111222,11111222' 
TCOON,ioos:station:TCOON:057:1,2014-12-01T15:06:00Z,28.4460,-96.3961,0.0,3.8,156.0,6.5,'11111222,11111222,11111222' 
TCOON,ioos:station:TCOON:057:1,2014-12-01T15:12:00Z,28.4460,-96.3961,0.0,3.3,165.0,4.8,'11111222,11111222,11111222' 
TCOON,ioos:station:TCOON:057:1,2014-12-01T15:18:00Z,28.4460,-96.3961,0.0,2.8,158.0,4.1,'11111222,11111222,11111222' 
TCOON,ioos:station:TCOON:057:1,2014-12-01T15:24:00Z,28.4460,-96.3961,0.0,3.3,179.0,4.0,'11111222,11111222,11111222' 
TCOON,ioos:station:TCOON:057:1,2014-12-01T15:30:00Z,28.4460,-96.3961,0.0,2.2,171.0,4.4,'11111222,11111222,11111222' 
TCOON,ioos:station:TCOON:057:1,2014-12-01T15:36:00Z,28.4460,-96.3961,0.0,2.4,175.0,3.1,'11111222,11111222,11111222' 
TCOON,ioos:station:TCOON:057:1,2014-12-01T15:42:00Z,28.4460,-96.3961,0.0,2.1,182.0,3.1,'11111222,11111222,11111222' 
TCOON,ioos:station:TCOON:057:1,2014-12-01T15:48:00Z,28.4460,-96.3961,0.0,2.9,186.0,3.4,'11111222,11111222,11111222' 
TCOON,ioos:station:TCOON:057:1,2014-12-01T15:54:00Z,28.4460,-96.3961,0.0,2.8,188.0,3.4,'11111222,11111222,11111222' 
TCOON,ioos:station:TCOON:057:1,2014-12-01T16:00:00Z,28.4460,-96.3961,0.0,2.1,194.0,2.7,'11111222,11111222,11111222' 
TCOON,ioos:station:TCOON:057:1,2014-12-01T16:06:00Z,28.4460,-96.3961,0.0,1.1,189.0,1.9,'11111222,11111222,11111222' 
TCOON,ioos:station:TCOON:057:1,2014-12-01T16:12:00Z,28.4460,-96.3961,0.0,0.0,177.0,1.1,'11111222,11111222,11111222' 
TCOON,ioos:station:TCOON:057:1,2014-12-01T16:18:00Z,28.4460,-96.3961,0.0,0.0,171.0,0.3,'11111222,11111222,11111222' 
TCOON,ioos:station:TCOON:057:1,2014-12-01T16:24:00Z,28.4460,-96.3961,0.0,1.0,42.0,1.1,'11111222,11111222,11111222' 
TCOON,ioos:station:TCOON:057:1,2014-12-01T16:30:00Z,28.4460,-96.3961,0.0,0.8,67.0,1.1,'11111222,11111222,11111222' 
TCOON,ioos:station:TCOON:057:1,2014-12-01T16:36:00Z,28.4460,-96.3961,0.0,1.5,95.0,1.8,'11111222,11111222,11111222' 
TCOON,ioos:station:TCOON:057:1,2014-12-01T16:42:00Z,28.4460,-96.3961,0.0,1.8,50.0,2.3,'11111222,11111222,11111222' 
TCOON,ioos:station:TCOON:057:1,2014-12-01T16:48:00Z,28.4460,-96.3961,0.0,2.2,39.0,2.4,'11111222,11111222,11111222' 
TCOON,ioos:station:TCOON:057:1,2014-12-01T16:54:00Z,28.4460,-96.3961,0.0,3.0,34.0,3.2,'11111222,11111222,11111222' 
TCOON,ioos:station:TCOON:057:1,2014-12-01T17:00:00Z,28.4460,-96.3961,0.0,2.1,9.0,3.2,'11111222,11111222,11111222' 
TCOON,ioos:station:TCOON:057:1,2014-12-01T17:06:00Z,28.4460,-96.3961,0.0,2.9,317.0,3.4,'11111222,11111222,11111222' 
TCOON,ioos:station:TCOON:057:1,2014-12-01T17:12:00Z,28.4460,-96.3961,0.0,3.0,340.0,3.4,'11111222,11111222,11111222' 
TCOON,ioos:station:TCOON:057:1,2014-12-01T17:18:00Z,28.4460,-96.3961,0.0,2.9,4.0,3.1,'11111222,11111222,11111222' 
TCOON,ioos:station:TCOON:057:1,2014-12-01T17:24:00Z,28.4460,-96.3961,0.0,2.9,14.0,3.2,'11111222,11111222,11111222' 
TCOON,ioos:station:TCOON:057:1,2014-12-01T17:30:00Z,28.4460,-96.3961,0.0,2.6,27.0,3.1,'11111222,11111222,11111222' 
TCOON,ioos:station:TCOON:057:1,2014-12-01T17:36:00Z,28.4460,-96.3961,0.0,3.1,58.0,3.4,'11111222,11111222,11111222' 
TCOON,ioos:station:TCOON:057:1,2014-12-01T17:42:00Z,28.4460,-96.3961,0.0,3.0,59.0,3.3,'11111222,11111222,11111222' 
TCOON,ioos:station:TCOON:057:1,2014-12-01T17:48:00Z,28.4460,-96.3961,0.0,3.1,60.0,3.8,'11111222,11111222,11111222' 
TCOON,ioos:station:TCOON:057:1,2014-12-01T17:54:00Z,28.4460,-96.3961,0.0,2.5,49.0,3.4,'11111222,11111222,11111222' 
TCOON,ioos:station:TCOON:057:1,2014-12-01T18:00:00Z,28.4460,-96.3961,0.0,3.0,60.0,3.7,'11111222,11111222,11111222' 
TCOON,ioos:station:TCOON:057:1,2014-12-01T18:12:00Z,28.4460,-96.3961,0.0,2.9,47.0,3.5,'11111222,11111222,11111222' 
TCOON,ioos:station:TCOON:057:1,2014-12-01T18:18:00Z,28.4460,-96.3961,0.0,3.6,64.0,4.3,'11111222,11111222,11111222' 
TCOON,ioos:station:TCOON:057:1,2014-12-01T18:24:00Z,28.4460,-96.3961,0.0,2.9,74.0,3.5,'11111222,11111222,11111222' 
TCOON,ioos:station:TCOON:057:1,2014-12-01T18:30:00Z,28.4460,-96.3961,0.0,2.3,40.0,3.6,'11111222,11111222,11111222' 
TCOON,ioos:station:TCOON:057:1,2014-12-01T18:36:00Z,28.4460,-96.3961,0.0,2.0,12.0,2.3,'11111222,11111222,11111222' 
TCOON,ioos:station:TCOON:057:1,2014-12-01T18:42:00Z,28.4460,-96.3961,0.0,2.3,55.0,3.2,'11111222,11111222,11111222' 
TCOON,ioos:station:TCOON:057:1,2014-12-01T18:48:00Z,28.4460,-96.3961,0.0,1.7,53.0,2.3,'11111222,11111222,11111222' 
TCOON,ioos:station:TCOON:057:1,2014-12-01T18:54:00Z,28.4460,-96.3961,0.0,0.6,26.0,2.0,'11111222,11111222,11111222' 
TCOON,ioos:station:TCOON:057:1,2014-12-01T19:00:00Z,28.4460,-96.3961,0.0,0.6,26.0,2.0,'1111122,1111122,1111122' 
TCOON,ioos:station:TCOON:057:1,2014-12-01T19:06:00Z,28.4460,-96.3961,0.0,0.6,260.0,0.8,'11111222,11111222,11111222' 
TCOON,ioos:station:TCOON:057:1,2014-12-01T19:12:00Z,28.4460,-96.3961,0.0,0.1,266.0,0.8,'11111222,11111222,11111222' 
TCOON,ioos:station:TCOON:057:1,2014-12-01T19:18:00Z,28.4460,-96.3961,0.0,0.1,266.0,0.8,'1111122,1111122,1111122' 
TCOON,ioos:station:TCOON:057:1,2014-12-01T19:24:00Z,28.4460,-96.3961,0.0,1.5,322.0,1.8,'11111222,11111222,11111222' 
TCOON,ioos:station:TCOON:057:1,2014-12-01T19:30:00Z,28.4460,-96.3961,0.0,2.0,321.0,2.3,'11111222,11111222,11111222' 
TCOON,ioos:station:TCOON:057:1,2014-12-01T19:36:00Z,28.4460,-96.3961,0.0,1.8,318.0,2.3,'11111222,11111222,11111222' 
TCOON,ioos:station:TCOON:057:1,2014-12-01T19:42:00Z,28.4460,-96.3961,0.0,1.9,331.0,2.0,'11111222,11111222,11111222' 
TCOON,ioos:station:TCOON:057:1,2014-12-01T19:48:00Z,28.4460,-96.3961,0.0,2.0,350.0,2.2,'11111222,11111222,11111222' 
TCOON,ioos:station:TCOON:057:1,2014-12-01T19:54:00Z,28.4460,-96.3961,0.0,2.1,345.0,2.2,'11111222,11111222,11111222' 
TCOON,ioos:station:TCOON:057:1,2014-12-01T20:00:00Z,28.4460,-96.3961,0.0,1.6,330.0,2.1,'11111222,11111222,11111222' 
TCOON,ioos:station:TCOON:057:1,2014-12-01T20:06:00Z,28.4460,-96.3961,0.0,2.3,283.0,2.6,'11111222,11111222,11111222' 
TCOON,ioos:station:TCOON:057:1,2014-12-01T20:12:00Z,28.4460,-96.3961,0.0,1.1,327.0,2.3,'11111222,11111222,11111222' 
TCOON,ioos:station:TCOON:057:1,2014-12-01T20:18:00Z,28.4460,-96.3961,0.0,1.1,327.0,2.3,'1111122,1111122,1111122' 
TCOON,ioos:station:TCOON:057:1,2014-12-01T20:24:00Z,28.4460,-96.3961,0.0,4.2,4.0,4.6,'11111222,11111222,11111222' 
TCOON,ioos:station:TCOON:057:1,2014-12-01T20:30:00Z,28.4460,-96.3961,0.0,5.5,0.0,9.5,'11111222,11111222,11111222' 
TCOON,ioos:station:TCOON:057:1,2014-12-01T20:36:00Z,28.4460,-96.3961,0.0,11.9,349.0,12.8,'11111222,11111222,11111222' 